Montreal Mirabel, Quebec

6:53 AM EDT on July 23, 2017 (GMT -0400)
Montreal Mirabel

Weather History for CYMX - April, 2014

Change the Weather History Date:

Friday, April 11, 2014

  Actual Average Record
Temperature  
Mean Temperature 44 °F -  
Max Temperature 50 °F 47 °F 73 °F (2011)
Min Temperature 35 °F 29 °F 21 °F (1997)
Degree Days  
Heating Degree Days 20    
Moisture  
Dew Point 35 °F    
Average Humidity 73    
Maximum Humidity 100    
Minimum Humidity 43    
Precipitation  
Precipitation 0.00 in - - ()
Sea Level Pressure  
Sea Level Pressure 29.91 in    
Wind  
Wind Speed 8 mph ()    
Max Wind Speed 13 mph    
Max Gust Speed 21 mph    
Visibility 8.4 miles    
Events Rain    
Averages and records for this station are not official NWS values.
T = Trace of Precipitation, MM = Missing Value Source: Averaged Metar Reports

Daily Weather History Graph

Daily Weather History Graph

Search for Another Location

Airport or City:

Trip Planner

Search our weather history database for the weather conditions in past years. The results will help you decide how hot, cold, wet, or windy it might be!

Date:

Astronomy

Apr. 11, 2014 Rise Set
Actual Time 6:17 AM EDT 7:37 PM EDT
Civil Twilight 5:46 AM EDT 8:08 PM EDT
Nautical Twilight 5:09 AM EDT 8:45 PM EDT
Astronomical Twilight 4:30 AM EDT 9:25 PM EDT
Moon 4:05 PM EDT (4/11) 4:22 AM EDT (4/11)
Length of Visible Light 14h 21m
Length of Day
13h 19m
Waxing Gibbous, 87% of the Moon is Illuminated
Apr 11
Waxing Gibbous
Apr 15
Full
Apr 22
Last Quarter
Apr 29
New
May 6
First Quarter

Hourly Weather History & Observations

Time (EDT) Temp. Windchill Dew Point Humidity Pressure Visibility Wind Dir Wind Speed Gust Speed Precip Events Conditions
12:00 AM 46.4 °F 41.1 °F 44.6 °F 93% 29.72 in 10.0 mi SW 11.5 mph 18.4 mph N/A Rain Light Rain
12:27 AM 46.4 °F 41.9 °F 44.6 °F 93% 29.73 in 4.0 mi SW 9.2 mph 17.3 mph N/A Rain Light Rain
1:00 AM 44.6 °F 40.2 °F 44.6 °F 100% 29.74 in 3.0 mi SW 8.1 mph - N/A Rain Light Rain
2:00 AM 42.8 °F 37.5 °F 42.8 °F 100% 29.75 in 2.0 mi SW 9.2 mph - N/A Rain Light Rain
3:00 AM 42.8 °F 36.6 °F 41.0 °F 93% 29.78 in 15.0 mi SW 11.5 mph 18.4 mph N/A   Mostly Cloudy
4:00 AM 41.0 °F 36.4 °F 39.2 °F 93% 29.80 in 25.0 mi WSW 6.9 mph - N/A   Mostly Cloudy
5:00 AM 41.0 °F 37.1 °F 39.2 °F 93% 29.82 in 15.0 mi WSW 5.8 mph - N/A   Mostly Cloudy
6:00 AM 39.2 °F 33.6 °F 39.2 °F 100% 29.85 in 7.0 mi WSW 8.1 mph - N/A   Scattered Clouds
7:00 AM 39.2 °F 33.0 °F 37.4 °F 93% 29.88 in 10.0 mi WSW 9.2 mph - N/A   Partly Cloudy
7:52 AM 39.2 °F 34.2 °F 39.2 °F 100% 29.90 in 8.0 mi West 6.9 mph - N/A   Mostly Cloudy
8:00 AM 39.2 °F 33.6 °F 37.4 °F 93% 29.90 in 10.0 mi West 8.1 mph - N/A   Mostly Cloudy
8:31 AM 39.2 °F 33.6 °F 37.4 °F 93% 29.91 in 25.0 mi WSW 8.1 mph - N/A   Partly Cloudy
9:00 AM 41.0 °F 35.8 °F 37.4 °F 87% 29.93 in 25.0 mi WSW 8.1 mph - N/A   Partly Cloudy
10:00 AM 44.6 °F 39.7 °F 35.6 °F 71% 29.94 in 25.0 mi West 9.2 mph - N/A   Partly Cloudy
11:00 AM 44.6 °F 38.4 °F 35.6 °F 71% 29.94 in 45.0 mi SW 12.7 mph - N/A   Mostly Cloudy
12:00 PM 46.4 °F 41.9 °F 32.0 °F 57% 29.96 in 45.0 mi SW 9.2 mph 19.6 mph N/A   Mostly Cloudy
1:00 PM 48.2 °F - 30.2 °F 50% 29.97 in 45.0 mi WSW 10.4 mph 19.6 mph N/A   Mostly Cloudy
2:00 PM 48.2 °F - 30.2 °F 50% 29.98 in 45.0 mi WSW 12.7 mph 20.7 mph N/A   Mostly Cloudy
3:00 PM 50.0 °F - 30.2 °F 47% 29.97 in 45.0 mi WSW 10.4 mph 20.7 mph N/A   Scattered Clouds
4:00 PM 50.0 °F - 30.2 °F 47% 29.97 in 45.0 mi WSW 10.4 mph 19.6 mph N/A   Mostly Cloudy
5:00 PM 50.0 °F - 28.4 °F 43% 29.98 in 45.0 mi SW 8.1 mph - N/A   Mostly Cloudy
6:00 PM 50.0 °F - 28.4 °F 43% 29.99 in 45.0 mi WSW 8.1 mph - N/A   Mostly Cloudy
7:00 PM 48.2 °F - 26.6 °F 43% 30.01 in 45.0 mi SW 6.9 mph - N/A   Mostly Cloudy
8:00 PM 46.4 °F 43.5 °F 26.6 °F 46% 30.02 in 25.0 mi WSW 5.8 mph - N/A   Scattered Clouds
9:00 PM 42.8 °F 41.1 °F 26.6 °F 53% 30.03 in 25.0 mi West 3.5 mph - N/A   Clear
10:00 PM 39.2 °F - 24.8 °F 56% 30.03 in 25.0 mi NNE 2.3 mph - N/A   Clear
11:00 PM 35.6 °F - 24.8 °F 65% 30.02 in 25.0 mi Calm Calm - N/A   Clear